date,time,DOY,Ta_1_1_1,Pa_1_1_1,RH_1_1_1,LWin_1_1_1,LWout_1_1_1,SWin_1_1_1,SWout_1_1_1,PPFD_1_1_1,MWS_1_1_1,WD_1_1_1,SWC_1_1_1,Ts_1_1_1
[yyyy-mm-dd],[HH:MM],[ddd.ddd],[K],[Pa],[%],[W+1m-2],[W+1m-2],[W+1m-2],[W+1m-2],[µmol+1m-2s-1],[m+1s-1],[deg],[m+3m-3],[K]
2018-01-16,00:30,16.020,263.55766666666671,95673.166666666672,79.060000000000016,272.94433333333330,235.46533333333329,0.25933333333333336,-1.9853333333333334,7.66666666666666712E-003,5.3799999999999999,217.06666666666666,0.25999999999999984,273.13800000000003
2018-01-16,01:00,16.041,263.16900000000004,95691.333333333328,80.135666666666665,272.31766666666658,251.82133333333334,0.19433333333333333,-1.1693333333333331,2.00000000000000004E-003,5.0966666666666658,188.87733333333333,0.25999999999999984,273.13933333333335
2018-01-16,01:30,16.062,262.83666666666676,95730.899999999994,81.164666666666662,269.96499999999997,225.95999999999998,0.19599999999999998,-2.3233333333333333,1.00000000000000002E-003,4.7966666666666660,170.84466666666668,0.25999999999999984,273.13900000000007
2018-01-16,02:00,16.083,262.30666666666667,95781.366666666669,83.819999999999993,268.33800000000002,232.63066666666674,2.60000000000000023E-002,-1.8140000000000003,3.00000000000000006E-003,4.2566666666666659,177.63400000000001,0.25999999999999984,273.14533333333327
2018-01-16,02:30,16.104,261.98666666666657,95812.300000000003,84.332666666666668,266.83266666666668,221.78666666666669,7.33333333333333146E-003,-2.3170000000000002,5.00000000000000010E-003,4.0833333333333339,69.533666666666676,0.25999999999999984,273.14466666666669
2018-01-16,03:00,16.124,261.79466666666673,95840.933333333334,83.453333333333333,265.92133333333334,219.58433333333335,0.17099999999999999,-2.8583333333333334,1.00000000000000002E-003,3.6166666666666667,69.077666666666659,0.25999999999999984,273.14766666666668
2018-01-16,03:30,16.145,261.54866666666675,95872.933333333334,82.986333333333334,264.00466666666671,219.23733333333337,0.37433333333333330,-3.7826666666666671,0.0000000000000000,3.1133333333333324,289.01133333333331,0.25999999999999984,273.14733333333322
2018-01-16,04:00,16.166,261.27033333333333,95910.000000000000,82.994666666666660,263.63233333333329,230.48399999999992,0.30333333333333334,-3.6906666666666661,-3.00000000000000006E-003,3.1466666666666674,315.15499999999997,0.25999999999999984,273.14899999999994
2018-01-16,04:30,16.187,261.06333333333339,95932.866666666669,82.695666666666668,262.29566666666670,233.78833333333338,0.42533333333333329,-4.2403333333333340,-1.00000000000000002E-003,2.6700000000000004,334.68833333333333,0.25999999999999984,273.15399999999988
2018-01-16,05:00,16.208,260.77300000000002,95953.333333333328,82.884666666666675,261.44200000000001,238.84866666666667,0.47300000000000003,-3.9483333333333328,1.00000000000000002E-003,3.2233333333333332,330.24500000000000,0.25999999999999984,273.15466666666663
2018-01-16,05:30,16.229,260.77433333333335,95963.366666666669,83.103333333333325,261.91733333333337,246.30433333333332,0.48633333333333323,-3.0910000000000006,-2.00000000000000004E-003,3.2900000000000005,324.53333333333336,0.25999999999999984,273.15499999999997
2018-01-16,06:00,16.249,260.83433333333323,95962.566666666666,82.524000000000015,261.86533333333335,251.85166666666663,0.50166666666666659,-2.5686666666666671,-2.00000000000000004E-003,2.3933333333333335,327.91200000000003,0.25999999999999984,273.15366666666665
2018-01-16,06:30,16.270,261.17166666666668,95961.333333333328,82.960666666666654,263.71200000000005,255.09233333333333,0.60966666666666669,-1.8176666666666668,-3.00000000000000006E-003,3.4366666666666670,309.91166666666669,0.25999999999999984,273.15533333333326
2018-01-16,07:00,16.291,261.23666666666662,95960.333333333328,82.706000000000003,263.46200000000005,253.28566666666663,0.83799999999999997,-2.9326666666666670,-8.00000000000000017E-003,2.8566666666666665,309.25533333333334,0.25999999999999984,273.15799999999996
2018-01-16,07:30,16.312,261.17133333333339,95981.333333333328,82.633666666666670,263.96733333333333,258.30333333333340,0.51599999999999979,-1.5356666666666670,0.0000000000000000,3.2300000000000009,302.05566666666670,0.25999999999999984,273.15599999999995
2018-01-16,08:00,16.333,261.06000000000006,95995.333333333328,82.341666666666669,263.52999999999997,257.81333333333339,0.51766666666666650,-1.9843333333333331,-3.00000000000000006E-003,2.4733333333333340,293.92233333333331,0.25999999999999984,273.15999999999997
2018-01-16,08:30,16.354,261.17899999999997,96016.100000000006,82.452333333333314,264.54000000000002,262.59366666666671,0.35200000000000004,-0.25566666666666665,4.00000000000000008E-003,3.0166666666666666,290.37766666666664,0.25999999999999984,273.15999999999997
2018-01-16,09:00,16.374,261.56866666666667,96028.666666666672,82.587666666666692,266.26800000000009,264.35866666666669,0.22633333333333325,-0.38300000000000001,4.00000000000000008E-003,3.1166666666666667,297.93366666666668,0.25999999999999984,273.16333333333330
2018-01-16,09:30,16.395,261.70433333333330,96032.800000000003,82.543000000000021,266.25166666666661,261.33166666666665,0.46333333333333326,-1.6606666666666663,-4.00000000000000008E-003,3.0100000000000002,302.02199999999999,0.25999999999999984,273.16166666666658
2018-01-16,10:00,16.416,261.80766666666653,96051.566666666666,82.765666666666661,266.71400000000006,262.99866666666662,0.32833333333333331,-1.3283333333333331,-2.00000000000000004E-003,2.7433333333333332,323.71100000000001,0.25999999999999984,273.16566666666671
2018-01-16,10:30,16.437,261.76566666666685,96062.000000000000,82.544000000000025,265.80766666666671,259.73733333333337,0.60833333333333328,-2.7173333333333338,3.66666666666666616E-003,2.3133333333333335,325.06666666666666,0.25999999999999984,273.16466666666668
2018-01-16,11:00,16.458,261.89200000000000,96068.899999999994,82.513666666666651,267.25799999999998,265.79366666666664,0.35000000000000003,-0.32566666666666660,-4.00000000000000008E-003,3.4933333333333332,329.88966666666670,0.25999999999999984,273.16399999999999
2018-01-16,11:30,16.479,262.31666666666678,96086.566666666666,83.072666666666663,269.22366666666665,267.29000000000002,0.24900000000000003,-0.61166666666666669,-4.00000000000000008E-003,3.5433333333333339,330.25600000000003,0.25999999999999984,273.16500000000002
2018-01-16,12:00,16.499,262.67000000000002,96096.966666666660,83.288666666666686,270.81333333333333,270.26799999999992,0.14366666666666672,-0.11300000000000003,-6.00000000000000012E-003,3.1733333333333320,318.36733333333336,0.25999999999999984,273.16133333333335
2018-01-16,12:30,16.520,262.86966666666672,96117.000000000000,83.133999999999972,271.61533333333335,270.83166666666671,0.12100000000000005,-0.22666666666666666,-1.83333333333333334E-002,3.7400000000000007,322.18900000000002,0.25999999999999984,273.16733333333337
2018-01-16,13:00,16.541,262.99433333333337,96131.166666666672,83.132999999999996,272.28233333333333,271.73166666666668,4.86666666666666775E-002,-0.19533333333333333,1.00000000000000002E-003,3.7033333333333340,327.34533333333337,0.25999999999999984,273.16433333333327
2018-01-16,13:30,16.562,262.92899999999992,96148.966666666660,82.845333333333343,272.01533333333333,271.29966666666667,0.11066666666666668,-7.23333333333333328E-002,0.51966666666666672,3.3266666666666667,322.36633333333333,0.25999999999999984,273.16366666666664
2018-01-16,14:00,16.583,262.71566666666666,96169.233333333337,82.290666666666638,271.25966666666665,270.26533333333333,1.2560000000000002,3.4680000000000004,9.4773333333333305,3.7033333333333336,317.14500000000004,0.25999999999999984,273.16633333333334
2018-01-16,14:30,16.604,262.43566666666652,96189.366666666669,81.447333333333361,270.29133333333340,269.45633333333330,4.1586666666666661,13.044999999999998,30.964333333333332,3.8566666666666669,320.86700000000002,0.25999999999999984,273.16399999999999
2018-01-16,15:00,16.624,262.38766666666669,96204.166666666672,81.568666666666687,270.24433333333332,269.50266666666664,7.6530000000000005,23.770999999999994,56.655333333333331,3.4799999999999995,316.76700000000000,0.25999999999999984,273.16833333333329
2018-01-16,15:30,16.645,262.22233333333332,96223.366666666669,80.356000000000009,269.93666666666667,269.11833333333328,14.883000000000004,47.184333333333328,110.93766666666664,4.0899999999999990,320.18833333333333,0.25999999999999984,273.16700000000003
2018-01-16,16:00,16.666,262.33233333333322,96226.966666666660,80.419333333333327,270.68066666666664,269.92433333333332,19.517333333333333,61.876333333333335,145.15500000000000,3.8200000000000003,319.33333333333331,0.25999999999999984,273.17066666666665
2018-01-16,16:30,16.687,262.24466666666672,96241.766666666663,78.649333333333331,270.29200000000003,263.21366666666671,29.420333333333328,112.81233333333331,243.51599999999999,3.1766666666666663,313.62233333333336,0.25999999999999984,273.16266666666667
2018-01-16,17:00,16.708,262.72100000000006,96233.933333333334,77.435666666666691,274.62766666666658,269.19866666666672,55.876999999999981,212.80433333333335,422.07066666666674,3.3366666666666664,315.90033333333332,0.25999999999999984,273.16533333333336
2018-01-16,17:30,16.729,263.13000000000000,96196.433333333334,77.991000000000000,275.14166666666665,268.37933333333336,47.435333333333340,161.08900000000000,358.43266666666665,3.4833333333333338,303.62166666666667,0.25999999999999984,273.17033333333330
2018-01-16,18:00,16.749,263.34466666666674,96155.866666666669,76.391666666666652,276.77833333333336,252.54666666666665,65.334333333333333,250.16666666666666,517.84066666666661,3.2300000000000000,281.15666666666669,0.25999999999999984,273.16833333333335
2018-01-16,18:30,16.770,263.42966666666672,96118.800000000003,74.833999999999989,277.31166666666661,264.29099999999994,46.037333333333343,160.92299999999997,354.46099999999996,3.7566666666666677,282.31099999999998,0.25999999999999984,273.16433333333333
2018-01-16,19:00,16.791,263.58566666666667,96082.500000000000,70.192333333333323,278.25399999999996,250.03633333333337,65.818666666666658,272.14633333333330,545.44033333333334,4.5000000000000000,284.12200000000001,0.25999999999999984,273.17233333333331
2018-01-16,19:30,16.812,263.64233333333334,96068.100000000006,70.676999999999992,277.03933333333333,258.67233333333337,34.316333333333340,122.10033333333332,280.41699999999997,3.3566666666666665,283.78899999999999,0.25999999999999984,273.16800000000001
2018-01-16,20:00,16.833,263.79866666666669,96060.566666666666,66.827999999999989,277.53633333333335,259.25666666666660,39.493999999999993,150.10800000000003,327.53299999999996,3.5666666666666673,271.47766666666666,0.25999999999999984,273.17099999999999
2018-01-16,20:30,16.854,263.80333333333323,96062.466666666660,65.643666666666661,276.88266666666669,260.55966666666666,30.109000000000002,112.64166666666667,242.30900000000003,3.4200000000000008,281.35533333333331,0.25999999999999984,273.16966666666667
2018-01-16,21:00,16.874,263.79566666666682,96059.199999999997,68.656999999999982,276.50966666666665,262.34466666666674,23.756333333333330,91.072000000000017,195.02233333333334,3.4799999999999991,273.61200000000002,0.25999999999999984,273.16833333333335
2018-01-16,21:30,16.895,263.73433333333344,96045.333333333328,72.425999999999974,276.00533333333334,260.40499999999997,15.548000000000004,61.008999999999993,127.91933333333330,3.3533333333333331,281.10000000000002,0.25999999999999984,273.17000000000002
2018-01-16,22:00,16.916,263.42300000000000,96045.233333333337,73.790333333333351,270.66066666666666,214.45099999999991,7.6889999999999983,27.263666666666662,73.611333333333320,3.0666666666666678,271.01066666666668,0.25999999999999984,273.17766666666671
2018-01-16,22:30,16.937,262.98800000000000,96033.433333333334,71.010333333333350,267.24000000000001,207.97700000000003,7.1586666666666661,18.314666666666668,50.109666666666676,2.5966666666666667,256.76700000000000,0.25999999999999984,273.16799999999995
2018-01-16,23:00,16.958,262.55566666666664,96008.000000000000,73.425666666666658,263.68933333333331,202.32566666666665,2.5343333333333335,0.75233333333333330,8.3156666666666670,2.6433333333333331,256.89999999999998,0.25999999999999984,273.17533333333330
2018-01-16,23:30,16.979,262.12000000000018,95987.433333333334,75.043333333333308,261.92233333333331,204.85700000000003,0.99699999999999989,-3.2903333333333333,0.14433333333333331,2.5666666666666673,243.98866666666666,0.25999999999999984,273.16966666666667
2018-01-17,00:00,17.000,261.83866666666671,95963.233333333337,75.349333333333320,259.11500000000001,200.46966666666671,1.2286666666666666,-3.3243333333333336,4.00000000000000008E-003,2.2866666666666671,220.71099999999998,0.25999999999999984,273.17533333333341
